Location: ?? ????
(37.5691°N, 71.4914°E)
Time: 23:23:08
(UTC+00:00)

Daily predictions for brighter satellites

Satellite Brightness Start Highest point End
(mag) Time Altitude Azimuth Time Altitude Azimuth Time Altitude Azimuth
Milstar 3 Cent rocket 4.2 14:48:54 10° SSW 14:54:02 23° SE 15:02:08 10° E
STARLINK-1079 3.9 14:56:30 10° NW 15:00:36 64° SW 15:04:41 10° SE
Cosmos 332 Rocket 4.1 15:00:29 10° SSW 15:05:23 75° WNW 15:10:17 10° NNE
STARLINK-1116 4.1 15:01:30 10° NW 15:05:33 57° SW 15:09:36 10° SSE
FALCON 9 DEB 4.2 15:03:36 10° S 15:06:23 23° SE 15:09:10 10° ENE
Abrixas rocket 2.6 15:06:02 10° NW 15:08:54 47° NNE 15:11:45 10° ESE
Cosmos 1833 Rocket 3.3 15:04:03 10° NNW 15:09:34 59° WSW 15:15:03 10° S
GPS 2-04 Rocket1 3.1 15:07:26 10° W 15:10:37 37° SSW 15:13:51 10° SE
STARLINK-60 3.8 15:08:22 10° WSW 15:11:28 54° NW 15:14:35 10° NE
SL-4 R/B 3.7 15:09:52 10° WNW 15:11:45 16° WSW 15:13:33 10° SSW
STARLINK-1444 2.3 15:10:00 10° SW 15:12:05 65° NW 15:14:10 10° NE
STARLINK-1452 2.3 15:10:39 10° SW 15:12:43 63° NW 15:14:47 10° NE
STARLINK-1392 2.4 15:11:46 10° WSW 15:13:47 59° NW 15:15:47 10° NE
STARLINK-1399 2.4 15:11:45 10° WSW 15:13:47 59° NW 15:15:48 10° NE
STARLINK-1393 2.4 15:11:47 10° WSW 15:13:48 59° NW 15:15:50 10° NE
STARLINK-1394 2.4 15:11:49 10° WSW 15:13:49 59° NW 15:15:50 10° NE
STARLINK-1397 2.4 15:11:50 10° WSW 15:13:52 59° NW 15:15:52 10° NE
STARLINK-1395 2.4 15:11:52 10° WSW 15:13:52 59° NW 15:15:50 10° NE
STARLINK-1396 2.4 15:11:51 10° WSW 15:13:52 59° NW 15:15:52 10° NE
STARLINK-1414 2.4 15:11:52 10° WSW 15:13:52 59° NW 15:15:52 10° NE
STARLINK-1450 2.4 15:11:51 10° WSW 15:13:54 59° NW 15:15:55 10° NE
STARLINK-1408 2.4 15:11:53 10° WSW 15:13:54 59° NW 15:15:53 10° NE
STARLINK-1404 2.4 15:11:53 10° WSW 15:13:55 59° NW 15:15:55 10° NE
STARLINK-1416 2.4 15:11:55 10° WSW 15:13:55 59° NW 15:15:55 10° NE
STARLINK-1415 2.4 15:11:54 10° WSW 15:13:56 59° NW 15:15:57 10° NE
STARLINK-1440 2.4 15:11:56 10° WSW 15:13:58 59° NW 15:16:00 10° NE
STARLINK-1401 2.4 15:11:57 10° WSW 15:13:58 59° NW 15:16:00 10° NE
STARLINK-1406 2.4 15:11:59 10° WSW 15:13:59 58° NW 15:15:59 10° NE
STARLINK-1419 2.4 15:12:01 10° WSW 15:14:01 59° NW 15:16:02 10° NE
STARLINK-1417 2.4 15:12:00 10° WSW 15:14:01 59° NW 15:16:03 10° NE
STARLINK-1402 2.4 15:12:00 10° WSW 15:14:02 59° NW 15:16:03 10° NE
STARLINK-1413 2.4 15:12:01 10° WSW 15:14:04 59° NW 15:16:05 10° NE
STARLINK-1436 (VISORSAT) 2.4 15:12:02 10° WSW 15:14:05 59° NW 15:16:08 10° NE
STARLINK-1398 2.4 15:12:03 10° WSW 15:14:07 59° NW 15:16:09 10° NE
STARLINK-1453 2.4 15:12:04 10° WSW 15:14:07 59° NW 15:16:08 10° NE
STARLINK-1422 2.4 15:12:05 10° WSW 15:14:07 59° NW 15:16:08 10° NE
STARLINK-1420 2.4 15:12:07 10° WSW 15:14:09 59° NW 15:16:10 10° NE
STARLINK-1460 2.4 15:12:09 10° WSW 15:14:11 58° NW 15:16:13 10° NE
STARLINK-1454 2.4 15:12:14 10° WSW 15:14:16 58° NW 15:16:17 10° NE
STARLINK-1458 2.4 15:12:15 10° WSW 15:14:17 58° NW 15:16:18 10° NE
STARLINK-1410 2.4 15:12:15 10° WSW 15:14:17 58° NW 15:16:18 10° NE
STARLINK-1423 2.4 15:12:16 10° WSW 15:14:17 58° NW 15:16:18 10° NE
STARLINK-1421 2.4 15:12:16 10° WSW 15:14:17 58° NW 15:16:18 10° NE
STARLINK-1400 2.4 15:12:16 10° WSW 15:14:18 58° NW 15:16:19 10° NE
STARLINK-1445 2.5 15:12:17 10° WSW 15:14:18 58° NW 15:16:21 10° NE
STARLINK-1446 2.5 15:12:18 10° WSW 15:14:20 58° NW 15:16:23 10° NE
STARLINK-1407 2.5 15:12:20 10° WSW 15:14:23 58° NW 15:16:24 10° NE
STARLINK-1455 2.5 15:12:21 10° WSW 15:14:23 58° NW 15:16:25 10° NE
STARLINK-1437 2.5 15:12:22 10° WSW 15:14:23 58° NW 15:16:25 10° NE
STARLINK-1405 2.4 15:12:24 10° WSW 15:14:24 57° NW 15:16:23 10° NE
STARLINK-1451 2.5 15:12:23 10° WSW 15:14:24 58° NW 15:16:25 10° NE
STARLINK-1456 2.5 15:12:22 10° WSW 15:14:24 58° NW 15:16:25 10° NE
STARLINK-1457 2.4 15:12:22 10° WSW 15:14:24 58° NW 15:16:25 10° NE
STARLINK-1447 2.5 15:12:23 10° WSW 15:14:25 58° NW 15:16:27 10° NE
STARLINK-1370 2.5 15:12:23 10° WSW 15:14:25 58° NW 15:16:27 10° NE
STARLINK-1409 2.5 15:12:24 10° WSW 15:14:26 58° NW 15:16:27 10° NE
STARLINK-1441 2.5 15:12:24 10° WSW 15:14:27 58° NW 15:16:29 10° NE
STARLINK-1439 2.4 15:12:27 10° WSW 15:14:27 57° NW 15:16:26 10° NE
STARLINK-1443 2.5 15:12:25 10° WSW 15:14:28 58° NW 15:16:30 10° NE
STARLINK-1442 2.5 15:12:28 10° WSW 15:14:31 58° NW 15:16:32 10° NE
STARLINK-1418 2.5 15:12:29 10° WSW 15:14:31 58° NW 15:16:33 10° NE
STARLINK-1351 2.5 15:12:29 10° WSW 15:14:31 58° NW 15:16:33 10° NE
STARLINK-1434 2.5 15:12:29 10° WSW 15:14:32 58° NW 15:16:34 10° NE
STARLINK-1448 2.5 15:12:30 10° WSW 15:14:32 58° NW 15:16:34 10° NE
STARLINK-1403 2.5 15:12:30 10° WSW 15:14:32 58° NW 15:16:35 10° NE
STARLINK-1449 2.5 15:12:32 10° WSW 15:14:34 58° NW 15:16:36 10° NE
STARLINK-1433 2.5 15:12:32 10° WSW 15:14:34 57° NW 15:16:36 10° NE
STARLINK-1438 2.5 15:12:37 10° WSW 15:14:39 57° NW 15:16:39 10° NE
STARLINK-1411 2.5 15:12:41 10° WSW 15:14:43 57° NW 15:16:45 10° NE
STARLINK-1412 2.5 15:12:41 10° WSW 15:14:43 57° NW 15:16:45 10° NE
STARLINK-1094 4.4 15:11:30 10° WNW 15:15:28 46° SW 15:19:25 10° SSE
SL-08 RB Rocket 4.0 15:14:43 10° S 15:19:16 72° WSW 15:23:48 10° NNW
FREGAT/IRIS 4.1 15:18:49 10° SSW 15:21:14 31° W 15:23:39 10° NNW
Cosmos 2297 3.9 15:15:49 10° SSW 15:21:30 82° WNW 15:27:15 10° NNE
Lacrosse 5 2.9 15:17:36 10° WNW 15:22:16 39° SW 15:26:56 10° SSE
STARLINK-1111 4.4 15:18:50 10° NW 15:22:47 42° NE 15:26:30 11° ESE
SL-4 R/B 2.6 15:20:18 10° WSW 15:24:52 73° NW 15:29:41 10° NE
Cosmos 2082 Rocket 2.5 15:21:14 10° NNW 15:26:55 71° WSW 15:32:33 10° SSE
STARLINK-1073 4.3 15:23:45 10° NW 15:27:45 45° NE 15:31:15 13° ESE
Cosmos 2369 Rocket 2.8 15:23:11 10° SSE 15:28:13 34° ESE 15:33:13 10° NE
Meteor 1-12 Rocket 4.4 15:25:47 10° N 15:31:30 81° W 15:37:17 10° S
STARLINK-1121 4.2 15:28:42 10° NW 15:32:44 50° NE 15:36:01 15° ESE
Nadezhda 4 Rocket 4.3 15:27:29 10° SSE 15:33:17 47° E 15:39:06 10° NNE
Cosmos 1437 Rocket 3.0 15:31:07 10° SSW 15:34:53 69° W 15:38:43 10° N
ASTRO E2 4.0 15:31:53 10° WSW 15:35:09 25° SSW 15:37:21 16° SSE
Okean 1 Rocket 3.8 15:32:07 10° N 15:36:14 36° ENE 15:39:14 16° SE
CZ-2C R/B 4.1 15:31:45 10° N 15:36:15 67° WNW 15:40:50 10° SSW
deb Kosmos-1763 4.0 15:33:20 10° NNW 15:36:55 66° ENE 15:39:37 16° SSE
STARLINK-1106 4.0 15:33:39 10° NW 15:37:44 55° NE 15:40:49 16° ESE
CENTAUR R/B 4.3 15:35:12 10° NNW 15:42:18 32° NE 15:49:39 11° ESE
USA 186 4.4 15:40:58 10° SW 15:42:26 14° W 15:44:00 10° WNW
ATLAS CENTAUR R/B 2.6 15:39:46 13° SSE 15:42:38 23° ESE 15:46:02 10° ENE
STARLINK-1112 3.9 15:38:37 10° NW 15:42:44 60° NE 15:45:36 18° ESE
STARLINK-29 3.6 15:40:47 10° WSW 15:43:58 58° NW 15:47:09 10° NE
Meteor 1-15 Rocket 4.4 15:39:52 10° N 15:45:46 63° E 15:50:38 15° SSE
Cosmos 2279 Rocket 4.1 15:41:09 10° N 15:47:22 77° W 15:53:32 10° S
STARLINK-1128 3.8 15:43:34 10° NW 15:47:41 67° NE 15:50:22 21° ESE
Okean 2 Rocket 4.2 15:45:27 10° NNW 15:49:35 41° W 15:53:42 10° SSW
STARLINK-1365 4.4 15:46:25 10° S 15:49:56 28° SE 15:53:28 10° ENE
ISS -1.0 15:51:33 10° WSW 15:52:19 11° SW 15:53:05 10° SW
STARLINK-1113 3.7 15:48:33 10° NW 15:52:42 74° NE 15:55:10 23° ESE
Cosmos 1066 Rocket 4.1 15:50:48 10° S 15:56:11 87° WNW 16:01:33 10° N
Meteor 1-23 Rocket 4.3 15:51:02 10° S 15:56:43 84° W 16:02:22 10° N
STARLINK-1119 3.6 15:53:31 10° NW 15:57:40 81° NE 15:59:57 26° SE
Cosmos 1766 4.2 15:55:08 10° NNE 15:58:45 32° ENE 16:00:12 25° ESE
Resurs 01 Rocket 1.7 15:55:13 15° S 15:58:53 80° WSW 16:03:21 10° NNW
USA 245 3.6 15:59:45 25° E 15:59:52 25° ENE 16:01:57 10° NNE
Spot 2 Rocket 3.9 15:57:01 21° SE 16:00:05 48° ENE 16:04:56 10° N
STARLINK-1320 3.1 15:57:36 10° SSW 16:00:33 42° SE 16:03:31 10° ENE
STARLINK-1322 3.1 15:57:56 10° SSW 16:00:55 42° SE 16:03:52 10° ENE
STARLINK-1324 3.1 15:58:14 10° SSW 16:01:12 43° SE 16:04:11 10° ENE
STARLINK-1294 3.1 15:58:35 10° SSW 16:01:32 43° SE 16:04:30 10° ENE
STARLINK-1261 3.1 15:58:56 10° SSW 16:01:54 44° SE 16:04:53 10° ENE
STARLINK-1325 3.1 15:59:16 10° SSW 16:02:14 44° SE 16:05:14 10° ENE
STARLINK-1338 4.0 15:58:47 10° SSW 16:02:24 35° SE 16:06:03 10° ENE
STARLINK-1333 3.1 15:59:38 10° SSW 16:02:38 45° SE 16:05:37 10° ENE
STARLINK-1114 3.5 15:58:30 10° NW 16:02:40 89° ENE 16:04:45 28° SE
SPOT 5 4.5 16:00:12 17° ESE 16:02:44 24° ENE 16:06:56 10° NNE
STARLINK-1334 3.0 15:59:56 10° SSW 16:02:55 45° SE 16:05:55 10° ENE
STARLINK-1326 3.0 16:00:15 10° SSW 16:03:14 45° SE 16:06:14 10° ENE
STARLINK-1323 3.0 16:00:37 10° SSW 16:03:36 46° SE 16:06:36 10° ENE
STARLINK-1349 3.0 16:00:54 10° SSW 16:03:53 46° SE 16:06:54 10° ENE
STARLINK-1336 3.0 16:01:14 10° SSW 16:04:14 47° SE 16:07:15 10° ENE
STARLINK-1331 3.0 16:01:37 10° SSW 16:04:36 47° SE 16:07:37 10° ENE
STARLINK-1344 3.0 16:01:55 10° SSW 16:04:55 48° SE 16:07:56 10° ENE
STARLINK-1343 3.0 16:02:17 10° SSW 16:05:16 48° SE 16:08:18 10° ENE
STARLINK-1346 3.0 16:02:34 10° SSW 16:05:35 49° SE 16:08:36 10° ENE
STARLINK-1328 2.9 16:02:59 10° SSW 16:05:59 49° SE 16:09:01 10° ENE
STARLINK-1354 2.9 16:03:16 10° SSW 16:06:17 50° SE 16:09:19 10° ENE
STARLINK-1347 2.9 16:03:34 10° SSW 16:06:35 50° SE 16:09:37 10° ENE
STARLINK-1357 2.9 16:03:59 10° SSW 16:07:00 51° SE 16:10:02 10° ENE
STARLINK-1335 2.9 16:04:16 10° SSW 16:07:17 51° SE 16:10:20 10° ENE
STARLINK-1130 (DARKSAT) 3.6 16:03:28 10° NW 16:07:36 82° SW 16:09:30 31° SE
STARLINK-1327 2.9 16:04:38 10° SSW 16:07:38 52° SE 16:10:41 10° ENE
Terra 3.6 16:06:04 14° E 16:07:48 17° ENE 16:10:49 10° NNE
STARLINK-1340 2.9 16:04:56 10° SSW 16:07:57 52° SE 16:10:59 10° ENE
STARLINK-1356 2.9 16:05:17 10° SSW 16:08:19 53° SE 16:11:22 10° ENE
STARLINK-1345 2.9 16:05:37 10° SSW 16:08:38 53° SE 16:11:41 10° ENE
STARLINK-1355 2.8 16:05:57 10° SSW 16:08:59 54° SE 16:12:02 10° ENE
STARLINK-1321 2.8 16:06:17 10° SSW 16:09:19 54° SE 16:12:22 10° NE
H-2A ROCKET BODY 3.9 16:04:17 10° SSW 16:09:26 35° SE 16:28:26 10° E
STARLINK-1358 2.8 16:06:39 10° SSW 16:09:42 55° SE 16:12:45 10° NE
STARLINK-1332 2.8 16:06:57 10° SSW 16:09:59 56° SE 16:13:03 10° NE
NOSS 3-4 (A) 3.4 16:04:23 10° SSW 16:10:05 54° ESE 16:16:02 10° NE
NOSS 3-4 (C) 3.4 16:04:30 10° SSW 16:10:11 53° ESE 16:16:08 10° NE
STARLINK-1348 2.8 16:07:17 10° SW 16:10:20 56° SE 16:13:23 10° NE
STARLINK-1330 2.8 16:07:37 10° SW 16:10:40 57° SE 16:13:44 10° NE
STARLINK-1371 3.8 16:06:57 10° SSW 16:10:43 42° SE 16:14:30 10° ENE
STARLINK-1363 2.8 16:07:56 10° SW 16:10:59 57° SE 16:14:02 10° NE
STARLINK-1337 2.8 16:08:18 10° SW 16:11:22 58° SE 16:14:26 10° NE
STARLINK-1342 2.8 16:08:38 10° SW 16:11:41 58° SE 16:14:45 10° NE
STARLINK-1364 2.8 16:08:58 10° SW 16:12:01 59° SE 16:15:06 10° NE
STARLINK-1376 2.8 16:09:18 10° SW 16:12:22 60° SE 16:15:26 10° NE
STARLINK-1084 3.6 16:08:28 10° NW 16:12:36 74° SW 16:14:18 34° SSE
STARLINK-1360 2.7 16:09:39 10° SW 16:12:42 60° SE 16:15:47 10° NE
BREEZE-M DEB 4.0 16:10:47 10° W 16:12:50 32° NNW 16:16:20 10° NE
STARLINK-1361 2.7 16:09:59 10° SW 16:13:03 61° SE 16:16:07 10° NE
STARLINK-1367 2.7 16:10:16 10° SW 16:13:19 61° SE 16:16:25 10° NE
STARLINK-1366 2.7 16:10:38 10° SW 16:13:42 62° SE 16:16:47 10° NE
STARLINK-1341 3.7 16:10:53 10° SSW 16:14:44 47° SE 16:18:36 10° ENE
Cosmos 1378 3.3 16:14:06 18° SSW 16:16:47 71° W 16:20:30 10° N
COSMOS 2455 3.4 16:14:33 25° SSE 16:17:04 35° ESE 16:22:28 10° NE
STARLINK-1098 3.7 16:13:26 10° NW 16:17:33 67° SW 16:19:04 36° SSE
APEX 4.3 16:11:27 10° SSW 16:18:06 78° ESE 16:23:36 10° NNE
STARLINK-1374 3.6 16:15:19 10° SSW 16:19:10 51° SE 16:23:03 10° ENE
Meteor 1-22 Rocket 4.4 16:15:16 10° N 16:20:56 57° ENE 16:23:32 30° SE
STARLINK-1123 3.8 16:18:26 10° NW 16:22:31 59° SW 16:23:51 38° SSE
STARLINK-1339 3.5 16:19:15 10° SSW 16:23:12 56° SE 16:27:09 10° NE
Cosmos 1092 Rocket 3.9 16:19:16 18° S 16:23:57 76° E 16:30:06 10° N
Cosmos 1302 Rocket 4.4 16:21:23 10° SSW 16:26:36 64° WNW 16:31:53 10° NNE
STARLINK-1097 4.0 16:23:27 10° WNW 16:27:29 53° SW 16:28:38 39° S
STARLINK-1377 3.4 16:23:45 10° SW 16:27:41 62° SE 16:31:38 10° NE
Cosmos 2263 4.1 16:23:30 10° SSW 16:29:06 82° ESE 16:34:44 10° NNE
SPOT 1/Viking Rocket 3.5 16:28:37 33° SSE 16:30:53 70° ENE 16:36:01 10° N
Cosmos 1805 3.2 16:27:15 10° N 16:31:11 79° W 16:32:29 41° S
STARLINK-1353 3.4 16:27:58 10° SW 16:31:56 69° SE 16:35:55 10° NE
STARLINK-1099 4.1 16:28:26 10° WNW 16:32:25 47° SW 16:33:24 39° S
SAR-Lupe-2 3.9 16:29:53 10° N 16:33:26 63° WNW 16:35:13 27° SSW
Cosmos 2195 Rocket 4.4 16:29:37 22° S 16:33:56 79° E 16:40:11 10° N
STARLINK-1375 3.3 16:32:15 10° SW 16:36:13 76° SE 16:40:13 10° NE
Cosmos 1470 4.0 16:33:54 10° NNE 16:37:04 26° ENE 16:37:04 26° ENE
Cosmos 1943 Rocket 3.4 16:32:01 10° SW 16:37:14 42° WNW 16:42:32 10° N
STARLINK-1104 4.3 16:33:28 10° WNW 16:37:24 42° SW 16:38:12 38° SSW
ATLAS 2AS CENTAUR R/B 3.0 16:29:48 10° SSW 16:37:42 89° ESE 16:45:45 10° NNE
Cosmos 1486 Rocket 4.2 16:33:58 10° N 16:39:10 57° ENE 16:40:50 39° SE
SL-8 R/B 3.9 16:34:48 10° WNW 16:39:31 57° SW 16:40:45 43° SSE
Cosmos 1025 Rocket 4.0 16:40:04 30° E 16:40:04 30° E 16:43:36 10° NNE
STARLINK-1350 3.3 16:36:30 10° SW 16:40:29 83° SE 16:44:30 10° NE
Cosmos 1975 Rocket 3.1 16:39:32 31° SSW 16:41:37 76° W 16:46:01 10° N
Cosmos 1627 Rocket 4.5 16:37:54 25° S 16:41:52 83° E 16:48:18 10° N
Cosmos 292 Rocket 4.0 16:38:04 15° SSW 16:42:04 71° WNW 16:46:56 10° NNE
Cosmos 1733 3.0 16:38:32 10° N 16:42:21 89° W 16:42:54 63° S
STARLINK-1144 4.4 16:38:30 10° WNW 16:42:21 38° SW 16:42:59 36° SSW
NOSS 3-2 (A) 4.1 16:35:39 10° NW 16:43:28 83° WSW 16:48:04 31° SSE
Cosmos 1842 3.2 16:42:52 47° SSW 16:43:54 79° W 16:47:48 10° N
Cosmos 1992 Rocket 3.9 16:41:51 35° S 16:44:02 69° ESE 16:49:13 10° NNE
Abrixas rocket 4.4 16:42:18 10° W 16:43:23 14° WSW 16:43:23 14° WSW
STARLINK-1352 3.4 16:40:52 10° SW 16:44:51 89° NNW 16:48:52 10° NE
STARLINK-1368 3.5 16:45:12 10° SW 16:49:11 82° NW 16:53:13 10° NE
STARLINK-1235 4.2 16:46:44 10° NNW 16:49:58 35° NE 16:50:16 34° NE
Meteor 2-13 Rocket 4.4 16:48:36 31° S 16:51:47 84° E 16:57:58 10° N
SL-27 R/B 2.5 16:49:21 10° NNW 16:52:52 69° WSW 16:52:52 69° WSW
RESURS DK-1 4.2 16:55:09 19° ENE 16:55:09 19° ENE 16:56:43 10° NE
BREEZE-M DEB (TANK) 3.7 16:42:43 10° NW 16:53:31 69° NNE 16:55:26 36° ESE
STARLINK-1369 3.6 16:49:33 10° SW 16:53:34 75° NW 16:57:35 10° NE
Cosmos 1656 Rocket 3.6 16:52:55 21° SSW 16:56:44 84° WNW 17:02:20 10° NNE
Cosmos 1271 Rocket 2.7 16:57:35 69° ENE 16:57:35 69° ENE 17:01:22 10° NNE
STARLINK-1372 3.8 16:53:56 10° SW 16:57:56 68° NW 17:01:57 10° NE
USA 238 DEB 4.0 16:51:02 10° NW 16:58:16 67° WSW 17:01:34 35° S
USA 238 4.0 16:51:08 10° NW 16:58:22 68° WSW 17:01:41 36° S
ERS-1 Rocket 2.9 16:59:09 50° S 17:00:31 85° WSW 17:05:35 10° NNW
Cosmos 1953 4.1 16:57:47 10° NNE 17:00:16 21° ENE 17:00:16 21° ENE
STARLINK-1212 4.4 16:58:32 10° NNW 17:01:05 32° NNE 17:01:05 32° NNE
STARLINK-1105 4.4 16:59:10 10° NNW 17:01:42 33° NNE 17:01:42 33° NNE
Cosmos 2026 Rocket 4.1 16:58:20 25° SSW 17:02:09 73° W 17:08:32 10° N
STARLINK-1378 3.9 16:58:19 10° WSW 17:02:18 62° NW 17:06:17 10° NE
STARLINK-1247 4.4 17:00:14 10° NNW 17:02:47 34° NNE 17:02:47 34° NNE
STARLINK-1227 4.4 17:00:49 10° NNW 17:03:19 34° NNE 17:03:19 34° NNE
ATLAS 3B CENTAUR R/B 3.6 16:49:05 10° W 17:04:19 47° SSW 17:07:07 37° SSE
STARLINK-1226 4.4 17:01:57 10° NNW 17:04:25 34° NNE 17:04:25 34° NNE
STARLINK-1215 4.4 17:02:57 10° NNW 17:05:26 35° NNE 17:05:26 35° NNE
STARLINK-1379 4.1 17:02:47 10° WSW 17:06:45 57° NW 17:10:43 10° NE
Meteor 1-21 4.3 17:04:15 33° SSW 17:06:49 75° W 17:12:26 10° N
STARLINK-1217 4.4 17:05:10 10° NW 17:07:35 35° N 17:07:35 35° N
STARLINK-1229 4.4 17:06:14 10° NW 17:08:37 35° N 17:08:37 35° N
Cosmos 1707 3.1 17:09:56 55° NE 17:09:56 55° NE 17:13:10 10° NNE
STARLINK-1270 4.4 17:07:17 10° NW 17:09:40 36° N 17:09:40 36° N
STARLINK-1329 4.3 17:06:28 10° WSW 17:10:24 53° NW 17:14:22 10° NE
Cosmos 1242 Rocket 3.4 17:10:30 42° W 17:10:54 44° WNW 17:14:27 10° N
Cosmos 2369 Rocket 3.9 17:07:11 10° WSW 17:12:10 31° WNW 17:17:10 10° N
STARLINK-1189 4.4 17:09:37 10° NW 17:11:55 35° N 17:11:55 35° N
STARLINK-1188 4.5 17:10:48 10° NW 17:13:03 35° N 17:13:03 35° N
Cosmos 1455 Rocket 3.3 17:10:30 10° NNW 17:14:45 60° W 17:15:12 56° WSW
STARLINK-1362 4.4 17:10:58 10° WSW 17:14:52 49° NW 17:18:48 10° NE
ATLAS 5 CENTAUR R/B 2.3 17:07:56 10° SW 17:16:37 78° NW 17:19:34 10° NNE
Cosmos 968 Rocket 3.3 17:12:03 10° NNW 17:17:12 82° WSW 17:17:55 65° S
Cosmos 1553 Rocket 3.9 17:11:08 10° N 17:17:21 74° E 17:18:48 53° SSE
Cosmos 1758 3.5 17:15:48 10° N 17:19:30 70° NNE 17:19:30 70° NNE
CARTOSAT-1 4.0 17:19:52 48° WSW 17:20:16 50° W 17:24:29 10° NNW
ATLAS CENTAUR R/B 3.1 17:17:23 10° WSW 17:21:23 32° NW 17:25:11 10° N
Cosmos 1867 3.5 17:16:36 10° NNW 17:22:04 77° ENE 17:22:52 64° ESE
BREEZE-M DEB (TANK) 3.0 17:20:43 10° SW 17:31:40 87° NW 17:35:12 10° NE
Milstar 3 Cent rocket 4.2 17:23:03 10° WSW 17:31:54 55° SSE 17:51:15 10° E
CENTAUR R/B 3.3 17:25:25 10° NW 17:33:44 72° WSW 17:36:49 45° S
Cosmos 2266 Rocket 3.9 17:34:07 58° SE 17:34:48 62° E 17:40:45 10° NNE
In-Cosmos 22 3.9 17:36:44 72° ESE 17:36:49 73° E 17:42:05 10° NNE
BREEZE-M R/B 4.5 17:24:58 10° SW 17:37:49 90° SE 17:43:22 10° NE
SPOT 5 3.9 17:39:26 37° SW 17:40:28 41° W 17:45:31 10° NNW
Cosmos 1655 Rocket 3.9 17:39:21 55° SSW 17:40:50 84° W 17:47:08 10° N
Cosmos 1536 Rocket 4.0 17:41:44 57° WNW 17:41:44 57° WNW 17:45:57 10° N
ATLAS 3B R/B 2.9 17:34:56 10° NNW 17:41:46 65° NE 17:43:38 48° ESE
Cosmos 2084 4.2 17:43:33 48° W 17:44:08 52° NW 17:48:31 10° NNE
Terra 2.4 17:44:58 47° WSW 17:45:07 47° W 17:49:43 10° NNW
Thor Agena Rocket 3.5 17:42:50 10° NNE 17:47:54 70° E 17:47:54 70° E
Cosmos 883 Rocket 4.3 17:56:28 10° N 18:02:35 74° E 18:03:01 70° ESE
COSMOS 2455 4.2 17:57:33 10° WSW 18:02:56 35° NW 18:08:26 10° N
Meteor 2-10 4.2 17:58:53 10° NNW 18:03:42 60° W 18:03:42 60° W
Cosmos 1726 3.8 18:03:29 10° NNW 18:05:42 32° NNW 18:05:42 32° NNW
Cosmos 1674 4.3 18:09:01 32° N 18:09:01 32° N 18:11:09 10° N
SeaSat 1 3.0 18:04:28 10° NNE 18:08:16 50° NE 18:08:16 50° NE
CZ-4C R/B 3.6 18:16:10 24° ENE 18:16:10 24° ENE 18:18:52 10° NE
Nimbus 7 Rocket 4.4 18:10:39 10° NNE 18:16:35 66° E 18:16:35 66° E
Cosmos 1606 Rocket 4.5 18:13:58 10° N 18:17:04 45° NNE 18:17:04 45° NNE
Meteor 1-24 Rocket 4.1 18:20:36 50° ENE 18:20:36 50° ENE 18:25:13 10° NNE
ALOS 2 3.8 18:22:25 36° NE 18:22:25 36° NE 18:25:33 10° N
Cosmos 1340 Rocket 4.5 18:18:23 10° NNW 18:20:58 31° NW 18:20:58 31° NW
Cosmos 1656 4.5 18:23:42 40° ENE 18:23:42 40° ENE 18:27:50 10° NE
Cosmos 2297 Rocket 3.4 18:21:51 10° N 18:26:53 32° ENE 18:27:38 31° ENE
Cosmos 2219 3.9 18:25:13 10° N 18:30:33 41° ENE 18:30:52 41° ENE
Spot 4 4.3 18:31:49 57° NW 18:31:49 57° NW 18:35:48 10° NNW
RESURS DK-1 4.4 18:30:59 23° WNW 18:31:13 23° WNW 18:34:33 10° N
Cosmos 1626 4.3 18:37:14 24° NNE 18:37:14 24° NNE 18:38:48 10° NNE
Cosmos 921 Rocket 4.2 18:39:14 40° NNW 18:39:14 40° NNW 18:42:19 10° N
Cosmos 1809 Rocket 4.3 18:39:31 82° WSW 18:39:41 83° W 18:45:55 10° N
Timation 2 Rocket 3.8 18:33:48 10° NNW 18:39:51 79° W 18:39:51 79° W
Cosmos 2228 4.3 18:37:41 10° NNW 18:40:23 37° NNW 18:40:23 37° NNW
Lacrosse 4 Rocket 3.9 18:39:23 10° NNE 18:41:53 15° NE 18:42:14 15° ENE
Cosmos 1697 Rocket 3.7 18:49:29 36° ENE 18:49:29 36° ENE 18:53:30 10° NE
Nadezhda 2 Rocket 4.4 18:52:20 69° W 18:52:28 70° W 18:58:38 10° N
Helios 1A 4.4 18:57:43 35° NNE 18:57:43 35° NNE 19:00:23 10° N
Cosmos 2315 Rocket 4.4 18:50:43 10° NNW 18:56:39 50° W 18:56:50 50° W
Cosmos 1763 Rocket 4.2 19:05:57 45° NE 19:05:57 45° NE 19:09:39 10° NNE
Cosmos 2227 Rocket 2.6 18:59:13 10° NNW 19:04:48 56° ENE 19:04:48 56° ENE
SJ 16-02 2.7 19:05:31 10° N 19:08:37 37° NNE 19:08:37 37° NNE
Nadezhda 1 Rocket 4.2 19:05:10 10° N 19:11:22 60° E 19:11:38 59° E
USA 215 4.5 19:07:10 10° E 19:13:06 38° NNE 19:19:00 10° NNW
Meteor 2-16 Rocket 4.4 19:14:58 78° WNW 19:14:58 78° WNW 19:21:04 10° N
Meteor 1-21 Rocket 4.5 19:27:11 61° ENE 19:27:11 61° ENE 19:32:26 10° NNE
CZ-2D R/B 4.4 19:28:55 10° ENE 19:31:02 12° E 19:31:04 12° E
ATLAS 3B R/B 4.2 19:26:46 10° WNW 19:30:52 22° W 19:30:52 22° W
Meteor 2-10 Rocket 4.2 19:27:27 10° N 19:31:54 45° ENE 19:31:54 45° ENE
SL-08 ROCKET BODY 4.3 19:33:59 74° WNW 19:33:59 74° WNW 19:39:35 10° N
FALCON 9 R/B 3.1 19:41:43 52° SE 19:41:43 52° SE 19:53:06 10° ESE
Cosmos 540 Rocket 4.0 19:41:42 52° ENE 19:41:42 52° ENE 19:45:49 10° NNE
Cosmos 1980 Rocket 2.4 19:46:35 62° ENE 19:46:35 62° ENE 19:51:37 10° NNE
Cosmos 1745 Rocket 4.2 19:47:29 56° W 19:47:34 57° W 19:53:37 10° N
Cosmos 2369 4.0 19:56:20 56° WNW 19:56:21 56° WNW 20:01:55 10° NNE
CZ-4C R/B 3.4 20:01:18 27° WNW 20:02:28 30° NW 20:07:30 10° NNE
Helios 1B rocket 3.8 19:58:44 10° N 20:01:26 36° NNW 20:01:26 36° NNW
Cosmos 2263 Rocket 4.1 20:02:32 10° N 20:07:01 24° ENE 20:11:09 11° ESE
Cosmos 1937 Rocket 3.7 20:02:12 10° NNW 20:06:45 65° NW 20:06:45 65° NW
Cosmos 2297 Rocket 3.4 20:05:52 10° NW 20:09:25 29° WNW 20:09:25 29° WNW
Cosmos 1898 Rocket 4.4 20:10:54 10° NNW 20:14:43 38° WNW 20:14:43 38° WNW
Cosmos 1825 Rocket 4.4 20:17:18 45° NNW 20:17:18 45° NNW 20:20:28 10° N
Cosmos 1455 4.1 20:13:39 10° NNW 20:15:23 25° NNW 20:15:23 25° NNW
Cosmos 372 Rocket 4.3 20:15:33 10° N 20:20:39 58° ENE 20:21:03 57° E
Lacrosse 4 Rocket 3.3 20:16:46 10° NW 20:18:31 23° NW 20:18:31 23° NW
Gblst 52 Del rocket 4.3 20:23:08 73° SW 20:23:49 90° NNW 20:30:46 10° NE
Cosmos 2322 Rocket 3.3 20:24:16 31° ESE 20:24:45 31° ESE 20:29:37 10° NE
Cosmos 2082 4.1 20:19:54 10° NNW 20:24:30 48° WNW 20:24:30 48° WNW
Cosmos 2181 Rocket 3.9 20:20:53 10° N 20:27:22 90° ESE 20:28:23 66° S
Cosmos 1814 Rocket 4.4 20:28:35 51° WNW 20:28:35 51° WNW 20:33:46 10° N
Cosmos 2150 Rocket 4.5 20:26:36 10° N 20:31:39 54° ENE 20:32:36 47° ESE
SL-19 R/B 4.3 20:26:11 10° N 20:31:54 70° WNW 20:32:29 65° WSW
Cosmos 1697 Rocket 4.1 20:31:11 25° WNW 20:32:18 27° WNW 20:37:04 10° N
Spot 1 4.4 20:32:44 81° NNW 20:32:44 81° NNW 20:37:34 10° NNW
Cosmos 2278 4.4 20:32:21 39° WNW 20:32:58 40° WNW 20:38:19 10° N
STARLINK-1299 4.4 20:36:01 51° NE 20:36:01 51° NE 20:39:17 10° NE
Cosmos 1375 Rocket 4.5 20:29:14 10° NNW 20:35:52 84° ENE 20:37:56 47° SE
STARLINK-1302 4.5 20:38:53 47° NE 20:38:53 47° NE 20:41:54 10° NE
Cosmos 841 Rocket 4.5 20:38:36 34° WNW 20:38:50 34° WNW 20:43:34 10° N
Resurs 1-4 Rocket 2.2 20:35:52 10° NNE 20:41:09 63° ESE 20:41:40 60° SE
SL-16 R/B 2.8 20:40:13 36° SE 20:42:41 62° ENE 20:48:47 10° N
STARLINK-1273 4.3 20:43:40 52° NE 20:43:40 52° NE 20:46:52 10° NE
Cosmos 1241 Rocket 4.3 20:44:09 66° SSW 20:45:06 85° ESE 20:51:21 10° NNE
Cosmos 1125 Rocket 4.4 20:40:55 10° N 20:45:53 44° ENE 20:48:15 27° ESE
DELTA 2 DEB (DPAF) 4.3 20:47:15 69° NNW 20:47:15 69° NNW 20:51:14 10° NNW
STARLINK-1288 4.1 20:48:27 57° NNE 20:48:27 57° NNE 20:51:50 10° NE
Cosmos 2227 Rocket 4.1 20:44:36 10° WNW 20:46:35 16° WNW 20:46:35 16° WNW
STARLINK-61 4.4 20:51:21 46° ENE 20:51:21 46° ENE 20:54:12 10° NE
STARLINK-1308 4.0 20:53:15 60° N 20:53:15 60° N 20:56:51 10° NE
Meteor 1-27 4.2 20:47:31 10° N 20:53:06 74° E 20:54:26 52° SSE
IRAS Rocket 4.3 20:53:35 55° WSW 20:53:37 55° WSW 20:59:04 10° NNW
Cosmos 2227 4.4 20:48:57 10° NNW 20:54:43 71° ENE 20:57:03 37° SE
USA 215 3.1 20:53:36 43° SSE 20:55:49 66° SW 21:02:20 10° NW
Cosmos 836 Rocket 4.4 20:56:09 71° S 20:56:42 83° ESE 21:02:01 10° NNE
Cosmos 2298 Rocket 3.8 20:53:10 10° NNW 20:58:28 77° WSW 20:58:54 71° SSW
Cosmos 1400 Rocket 3.6 20:54:56 10° NNW 20:57:59 44° NW 20:57:59 44° NW
SL-16 R/B 2.1 20:59:01 62° S 20:59:58 80° ESE 21:05:39 10° NNE
STARLINK-1304 4.0 21:02:48 57° NNW 21:02:48 57° NNW 21:06:45 10° NE
Nadezhda 3 Rocket 4.4 21:00:47 10° N 21:07:03 61° E 21:10:35 27° SSE
Cosmos 1408 4.5 21:06:31 22° ESE 21:07:04 23° E 21:10:02 10° NE
STARLINK-1278 4.3 21:07:14 45° NW 21:07:33 46° NW 21:11:40 10° NE
STARLINK-1280 4.4 21:09:01 43° NW 21:09:24 45° NW 21:13:30 10° NE
CZ-2D R/B 2.0 21:06:21 10° N 21:11:32 69° WNW 21:12:23 58° SW
MOZ.5/SAFIR/RUBIN 5/SL-8 3.9 21:11:57 54° W 21:11:57 54° W 21:16:13 10° NNW
Cosmos 1825 4.4 21:11:00 15° ESE 21:12:16 18° E 21:14:51 10° NE
CRYOSAT 2 4.3 21:08:02 10° N 21:12:57 80° E 21:13:51 59° SSE
STARLINK-39 4.4 21:14:42 36° E 21:14:42 36° E 21:17:20 10° ENE
STARLINK-31 4.3 21:16:18 39° E 21:16:18 39° E 21:19:01 10° ENE
STARLINK-69 4.1 21:18:01 45° E 21:18:01 45° E 21:20:51 10° ENE
Iridium 2 3.7 21:15:04 10° N 21:18:34 76° N 21:18:34 76° N
STARLINK-21 4.1 21:19:31 44° E 21:19:31 44° E 21:22:23 10° ENE
STARLINK-1286 4.5 21:18:26 39° WNW 21:19:03 41° NW 21:23:01 10° NE
STARLINK-1049 4.5 21:20:11 38° SE 21:20:11 38° SE 21:23:51 10° ENE
STARLINK-45 3.8 21:21:08 51° E 21:21:08 51° E 21:24:08 10° NE
Cosmos 2360 Rocket 2.7 21:20:25 35° SSE 21:22:24 50° ESE 21:27:50 10° NNE
Cosmos 2074 Rocket 4.4 21:21:59 39° WSW 21:23:33 47° W 21:29:35 10° N
STARLINK-76 3.8 21:24:09 52° E 21:24:09 52° E 21:27:14 10° NE
STARLINK-70 3.7 21:24:06 57° E 21:24:06 57° E 21:27:17 10° NE
CBERS-1 4.0 21:18:51 10° NNE 21:23:59 76° ESE 21:25:32 46° S
STARLINK-1051 4.2 21:24:56 43° SE 21:24:56 43° SE 21:28:51 10° ENE
Cosmos 2221 2.4 21:20:52 10° N 21:25:16 84° W 21:25:49 67° S
STARLINK-23 3.7 21:25:43 55° E 21:25:43 55° E 21:28:53 10° NE
IRIDIUM 103 4.4 21:24:29 40° SSE 21:26:21 74° E 21:31:34 10° N
CZ-4C R/B 4.2 21:27:09 41° W 21:27:09 41° W 21:30:56 10° NNW
STARLINK-32 3.6 21:27:19 58° E 21:27:19 58° E 21:30:32 10° NE
GP-B 4.3 21:24:28 10° NNW 21:28:06 29° WNW 21:28:06 29° WNW
STARLINK-40 3.5 21:28:50 62° ESE 21:28:50 62° ESE 21:32:09 10° NE
STARLINK-44 3.4 21:30:22 66° ESE 21:30:22 66° ESE 21:33:44 10° NE
Cosmos 1980 Rocket 4.1 21:28:20 14° W 21:30:32 17° NW 21:34:13 10° NNW
Cosmos 1842 Rocket 3.6 21:27:10 10° NNW 21:31:33 56° W 21:31:48 55° WSW
STARLINK-37 3.2 21:32:06 76° E 21:32:06 76° E 21:35:34 10° NE
BREEZE-M DEB (TANK)4.521:35:48ESE21:35:48ESE21:29:44NW
STARLINK-36 3.2 21:33:29 74° ESE 21:33:29 74° ESE 21:36:59 10° NE
Cosmos 1315 Rocket 2.7 21:30:29 10° NNW 21:34:23 65° W 21:34:25 65° W
STARLINK-1028 3.8 21:34:30 52° SSE 21:34:50 53° SE 21:38:53 10° ENE
Cosmos 2333 Rocket 4.1 21:31:32 11° SSE 21:35:26 23° E 21:39:45 10° NE
STARLINK-63 3.1 21:36:46 87° SSE 21:36:47 87° SE 21:40:26 10° NE
STARLINK-35 3.1 21:38:17 84° SSE 21:38:19 85° SE 21:41:57 10° NE
Cosmos 2058 2.9 21:38:24 58° SW 21:38:57 66° W 21:43:09 10° N
STARLINK-1021 3.7 21:39:19 54° S 21:39:50 60° SE 21:43:56 10° NE
STARLINK-60 3.9 21:36:46 10° NW 21:39:52 47° NE 21:42:58 10° ESE
STARLINK-51 3.1 21:39:50 84° SW 21:39:57 89° SE 21:43:35 10° NE
Cosmos 2219 Rocket 4.0 21:36:21 11° SSE 21:40:25 23° E 21:44:42 10° NE
STARLINK-1010 3.7 21:40:19 56° S 21:40:59 66° SE 21:45:11 10° NE
Cosmos 2341 Rocket 4.1 21:37:52 28° S 21:41:23 80° E 21:47:44 10° N
STARLINK-30 3.1 21:41:22 80° SW 21:41:33 88° NW 21:45:11 10° NE
CZ-4B R/B 4.0 21:38:00 10° N 21:43:04 48° WNW 21:44:42 36° WSW
STARLINK-72 3.1 21:42:58 77° WSW 21:43:12 85° NW 21:46:50 10° NE
IRIDIUM 106 4.2 21:42:43 39° SSW 21:44:38 74° W 21:49:52 10° N
STARLINK-1019 3.6 21:44:04 54° S 21:44:46 67° SE 21:48:53 10° NE
USA 229 DEB 3.8 21:38:11 10° NW 21:45:35 77° WSW 21:53:14 10° SSE
USA 229 3.8 21:38:18 10° NW 21:45:41 77° WSW 21:53:21 10° SSE
STARLINK-59 3.2 21:46:11 65° W 21:46:34 74° NW 21:50:10 10° NE
NOSS 3-1 (C) 4.1 21:38:51 10° NW 21:46:41 71° WSW 21:55:28 10° SSE
STARLINK-56 3.2 21:47:37 64° W 21:48:03 76° NW 21:51:42 10° NE
STARLINK-73 3.2 21:49:11 60° W 21:49:41 73° NW 21:53:19 10° NE
STARLINK-1012 3.6 21:48:52 52° SSW 21:49:45 75° SE 21:53:53 10° NE
ADEOS II 2.0 21:45:09 10° N 21:50:26 80° WNW 21:52:46 34° SSW
Cosmos 2263 Rocket 2.5 21:45:51 10° NW 21:51:07 44° WSW 21:52:45 34° SSW
STARLINK-38 3.3 21:50:45 57° W 21:51:18 70° NW 21:54:56 10° NE
STARLINK-65 3.4 21:52:20 54° W 21:52:57 67° NW 21:56:35 10° NE
STARLINK-68 3.5 21:52:23 49° W 21:53:07 62° NW 21:56:46 10° NE
IDEFIX/ARIANE 42P 4.0 21:49:32 10° NNE 21:54:17 34° E 21:58:58 10° SSE
IRS-1D 3.8 21:49:25 10° N 21:54:32 55° WNW 21:56:34 34° SW
STARLINK-53 3.5 21:53:57 48° W 21:54:41 61° NW 21:58:17 10° NE
NOSS 3-1 (A) 4.2 21:46:54 10° NNW 21:54:47 89° NE 22:03:40 10° SSE
STARLINK-50 3.4 21:54:08 49° WSW 21:55:00 70° NW 21:58:48 10° NE
Shenzhou-11 Module 3.8 21:56:25 18° NNW 21:57:16 22° N 21:59:17 10° ENE
STARLINK-71 3.7 21:56:08 42° WSW 21:57:18 66° NW 22:01:19 10° NE
Meteor 1-28 Rocket 4.3 21:55:41 10° SSE 21:59:15 43° ENE 22:02:49 10° N
STARLINK-1026 3.5 21:58:25 44° SW 21:59:41 89° NW 22:03:50 10° NE
ARIANE 5 R/B 2.5 21:56:21 10° NNE 22:01:23 78° ESE 22:04:21 25° S
SL-8 Rocket 4.0 21:57:31 21° S 22:01:54 86° E 22:08:11 10° N
STARLINK-1013 3.6 22:03:13 39° SW 22:04:41 81° NW 22:08:50 10° NE
IRS-1C 4.1 22:00:16 10° N 22:05:35 71° WNW 22:08:32 27° SSW
Cosmos 2218 Rocket 4.2 22:00:51 17° S 22:05:52 77° E 22:12:17 10° N
SL-4 R/B 2.2 22:03:05 10° NW 22:07:54 89° SW 22:12:26 10° SE
Cosmos 2322 Rocket 3.2 22:06:05 23° WSW 22:08:40 33° WNW 22:13:43 10° N
STARLINK-1009 3.6 22:07:59 35° WSW 22:09:39 73° NW 22:13:47 10° NE
ERS-2 3.0 22:06:25 10° SSE 22:09:57 49° ENE 22:13:30 10° N
Cosmos 1606 4.3 22:08:32 10° NNE 22:12:01 34° ENE 22:15:30 10° SE
Cosmos 1892 4.0 22:11:54 24° W 22:12:23 24° WNW 22:15:32 10° NNW
STARLINK-29 4.1 22:09:29 10° NW 22:12:33 44° NE 22:15:37 10° ESE
STARLINK-1015 3.7 22:12:46 31° WSW 22:14:38 66° NW 22:18:45 10° NE
STARLINK-25 4.1 22:13:50 26° W 22:15:12 39° NW 22:18:28 10° NE
CZ-2D R/B 3.6 22:12:57 10° NNE 22:17:15 77° ESE 22:20:19 19° S
STARLINK-1016 3.9 22:17:32 27° WSW 22:19:36 60° NW 22:23:42 10° NE
Resurs 1-4 Rocket 4.0 22:17:18 10° NNW 22:20:23 16° WNW 22:22:44 12° W
CZ-2C R/B 3.5 22:16:48 10° NNE 22:20:29 48° E 22:23:45 13° S
STARLINK-24 4.4 22:18:28 22° W 22:20:37 41° NW 22:24:26 10° NE
COBE Rocket 3.9 22:18:45 11° S 22:23:40 74° W 22:28:50 10° NNW
STARLINK-1008 4.0 22:22:20 24° WSW 22:24:37 54° NW 22:28:41 10° NE
SL-16 R/B 3.9 22:25:18 17° WSW 22:26:41 18° W 22:30:49 10° NW
BREEZE-M DEB (TANK) 3.7 22:23:30 20° SW 22:27:07 47° SSE 22:30:09 10° ENE
Cosmos 1151 Rocket 3.7 22:24:44 10° N 22:29:04 57° E 22:33:21 10° SSE
Cosmos 2151 3.4 22:27:20 24° SW 22:29:35 46° W 22:33:44 10° N
STARLINK-1014 4.2 22:27:09 21° WSW 22:29:36 49° NW 22:33:36 10° NE
H-2A R/B 2.3 22:25:21 10° SSE 22:29:44 74° ENE 22:34:13 10° N
Cosmos 1766 Rocket 3.5 22:27:31 19° SSW 22:30:32 72° W 22:34:52 10° N
GEOS 3 Rocket 3.9 22:26:03 10° SSE 22:30:57 45° WSW 22:35:59 10° NW
Spot 4 Rocket 4.0 22:27:32 10° N 22:32:40 74° WNW 22:36:53 15° SSW
Okean 3 Rocket 3.8 22:29:55 20° SSW 22:32:54 57° W 22:37:23 10° N
Lacrosse 5 rocket 2.0 22:30:42 18° SSW 22:33:25 44° SE 22:37:08 10° NE
Meteor 2-12 Rocket 4.4 22:29:08 15° SSW 22:34:18 71° W 22:40:21 10° N
STARLINK-1025 4.3 22:31:54 19° WSW 22:34:36 45° NW 22:38:36 10° NE
Cosmos 1339 Rocket 4.4 22:28:51 10° NNW 22:34:56 69° W 22:41:05 10° S
CZ-4B R/B 4.4 22:34:14 10° ESE 22:36:03 15° ENE 22:37:52 10° NNE
Cosmos 2237 Rocket 4.2 22:32:27 10° SSE 22:36:51 24° E 22:41:16 10° NE
STARLINK-1017 4.5 22:36:40 16° WSW 22:39:34 41° NW 22:43:31 10° NE
Cosmos 1818 4.1 22:35:22 12° S 22:40:16 55° ESE 22:45:34 10° NE
SL-08 R/B 3.8 22:37:05 15° SSW 22:40:36 39° W 22:44:56 10° NNW
STARLINK-1011 4.5 22:38:54 16° SSW 22:41:53 41° SE 22:45:48 10° ENE
Cosmos 1408 4.4 22:40:51 15° W 22:42:01 17° WNW 22:44:32 10° NNW
Cosmos 1538 Rocket 4.3 22:38:38 17° SW 22:42:41 58° WNW 22:48:00 10° N
MSX 4.1 22:38:32 10° NNE 22:44:17 70° ESE 22:49:58 10° S
SL-16 R/B 4.2 22:41:34 10° W 22:44:44 15° NW 22:47:55 10° NNW
Cosmos 1844 Rocket 2.6 22:40:16 10° NNW 22:45:52 79° WSW 22:51:24 10° SSE
STARLINK-1036 4.3 22:43:41 15° SSW 22:46:51 46° SE 22:50:49 10° ENE
Cosmos 1825 3.5 22:45:49 17° WSW 22:47:34 23° WNW 22:50:38 10° NNW
STARLINK-52 2.8 22:44:43 10° NW 22:47:55 86° SW 22:51:07 10° SE
COSMOS 2428 2.8 22:42:44 11° SSW 22:48:08 84° ESE 22:53:50 10° NNE
STARLINK-1044 4.1 22:48:28 14° SSW 22:51:49 51° SE 22:55:50 10° ENE
Cosmos 2366 rocket 4.4 22:48:07 13° SSW 22:53:31 46° WNW 22:59:34 10° N
Cosmos 1346 Rocket 4.2 22:52:11 10° SSE 22:55:55 39° E 22:59:38 10° NNE
STARLINK-1047 4.0 22:53:15 13° SSW 22:56:46 57° SE 23:00:51 10° NE
Cosmos 2344 3.7 22:50:39 10° SSW 22:58:18 73° ESE 23:05:57 10° NE
Cosmos 1743 Rocket 3.8 22:58:48 10° S 23:03:10 75° E 23:07:32 10° N
CZ-4C R/B 3.5 23:01:15 10° S 23:04:42 43° W 23:08:12 10° NNW
STARLINK-1444 3.9 23:03:32 10° W 23:05:09 16° SW 23:06:49 10° S
STARLINK-1452 3.9 23:04:12 10° W 23:05:47 16° SW 23:07:24 10° S
STARLINK-1392 4.0 23:05:03 10° W 23:06:34 15° SW 23:08:08 10° S
STARLINK-1399 4.0 23:05:06 10° W 23:06:37 15° SW 23:08:11 10° S
STARLINK-1393 4.0 23:05:08 10° W 23:06:39 15° SW 23:08:12 10° S
Cosmos 2360 Rocket 3.7 23:02:23 10° WSW 23:06:40 22° NW 23:10:59 10° N
STARLINK-1394 4.0 23:05:09 10° W 23:06:40 15° SW 23:08:14 10° S
STARLINK-1059 3.7 23:02:49 11° SW 23:06:43 72° SE 23:10:50 10° NE
STARLINK-1395 4.0 23:05:13 10° W 23:06:43 15° SW 23:08:16 10° S
STARLINK-1397 4.0 23:05:12 10° W 23:06:43 15° SW 23:08:17 10° S
STARLINK-1396 4.0 23:05:13 10° W 23:06:44 15° SW 23:08:17 10° S
STARLINK-1414 4.0 23:05:13 10° W 23:06:44 15° SW 23:08:17 10° S
STARLINK-1408 4.0 23:05:17 10° W 23:06:47 15° SW 23:08:20 10° S
STARLINK-1404 4.0 23:05:18 10° W 23:06:49 15° SW 23:08:22 10° S
STARLINK-1416 4.0 23:05:19 10° W 23:06:49 15° SW 23:08:22 10° S
STARLINK-1415 4.0 23:05:20 10° W 23:06:50 15° SW 23:08:24 10° S
STARLINK-1450 4.0 23:05:21 10° W 23:06:52 15° SW 23:08:26 10° S
STARLINK-1406 4.0 23:05:23 10° W 23:06:52 15° SW 23:08:25 10° S
STARLINK-1401 4.0 23:05:23 10° W 23:06:54 15° SW 23:08:27 10° S
STARLINK-1417 4.0 23:05:27 10° W 23:06:57 15° SW 23:08:31 10° S
STARLINK-1402 4.0 23:05:28 10° W 23:06:58 15° SW 23:08:32 10° S
STARLINK-1413 4.0 23:05:28 10° W 23:06:58 15° SW 23:08:32 10° S
STARLINK-1419 4.0 23:05:28 10° W 23:06:59 15° SW 23:08:32 10° S
STARLINK-1422 4.0 23:05:34 10° W 23:07:04 15° SW 23:08:37 10° S
STARLINK-1453 4.0 23:05:35 10° W 23:07:06 15° SW 23:08:39 10° S
STARLINK-1398 4.0 23:05:36 10° W 23:07:07 15° SW 23:08:41 10° S
STARLINK-1420 4.0 23:05:38 10° W 23:07:08 15° SW 23:08:42 10° S
STARLINK-1440 4.0 23:05:39 10° W 23:07:10 15° SW 23:08:44 10° S
STARLINK-1436 (VISORSAT) 4.0 23:05:40 10° W 23:07:11 15° SW 23:08:45 10° S
STARLINK-1460 4.0 23:05:40 10° W 23:07:11 15° SW 23:08:44 10° S
STARLINK-1410 4.0 23:05:45 10° W 23:07:15 15° SW 23:08:48 10° S
STARLINK-1423 4.0 23:05:46 10° W 23:07:15 15° SW 23:08:48 10° S
STARLINK-1421 4.0 23:05:46 10° W 23:07:15 15° SW 23:08:48 10° S
STARLINK-1400 4.0 23:05:46 10° W 23:07:16 15° SW 23:08:49 10° S
STARLINK-1454 4.0 23:05:47 10° W 23:07:17 15° SW 23:08:50 10° S
STARLINK-1458 4.0 23:05:49 10° W 23:07:19 15° SW 23:08:52 10° S
STARLINK-1445 4.0 23:05:51 10° W 23:07:22 15° SW 23:08:55 10° S
STARLINK-1407 4.0 23:05:54 10° W 23:07:24 15° SW 23:08:57 10° S
STARLINK-1405 4.0 23:05:55 10° W 23:07:25 15° SW 23:08:56 10° S
STARLINK-1446 4.0 23:05:54 10° W 23:07:25 15° SW 23:08:57 10° S
Cosmos 2278 Rocket 4.3 23:02:22 10° N 23:07:25 32° ENE 23:12:27 10° ESE
STARLINK-1370 4.0 23:05:57 10° W 23:07:27 15° SW 23:08:59 10° S
STARLINK-1456 4.0 23:05:57 10° W 23:07:28 15° SW 23:09:00 10° S
STARLINK-1439 4.0 23:05:58 10° W 23:07:28 15° SW 23:08:59 10° S
STARLINK-1457 4.0 23:05:58 10° W 23:07:28 15° SW 23:09:00 10° S
STARLINK-1451 4.0 23:05:58 10° W 23:07:28 15° SW 23:09:00 10° S
STARLINK-1409 4.0 23:05:58 10° W 23:07:28 15° SW 23:09:01 10° S
STARLINK-1447 4.0 23:05:59 10° W 23:07:29 15° SW 23:09:02 10° S
STARLINK-1455 4.0 23:05:59 10° W 23:07:30 15° SW 23:09:02 10° S
STARLINK-1437 4.0 23:06:00 10° W 23:07:30 15° SW 23:09:02 10° S
STARLINK-1441 4.0 23:06:01 10° W 23:07:32 15° SW 23:09:04 10° S
STARLINK-1443 4.0 23:06:04 10° W 23:07:35 15° SW 23:09:07 10° S
STARLINK-1351 4.0 23:06:06 10° W 23:07:36 15° SW 23:09:08 10° S
STARLINK-1418 4.0 23:06:06 10° W 23:07:36 15° SW 23:09:08 10° S
STARLINK-1403 4.0 23:06:07 10° W 23:07:37 15° SW 23:09:09 10° S
STARLINK-1434 4.0 23:06:07 10° W 23:07:37 15° SW 23:09:09 10° S
STARLINK-1442 4.0 23:06:07 10° W 23:07:37 15° SW 23:09:09 10° S
STARLINK-1448 4.0 23:06:09 10° W 23:07:39 15° SW 23:09:11 10° S
STARLINK-1433 4.0 23:06:10 10° W 23:07:39 15° SW 23:09:12 10° S
STARLINK-1449 4.0 23:06:12 10° W 23:07:41 15° SW 23:09:14 10° S
STARLINK-1438 4.0 23:06:15 10° W 23:07:44 15° SW 23:09:16 10° S
STARLINK-1411 4.0 23:06:22 10° W 23:07:51 15° SW 23:09:23 10° S
STARLINK-1412 4.0 23:06:22 10° W 23:07:51 15° SW 23:09:23 10° S
Cosmos 1340 2.6 23:05:48 10° S 23:09:33 80° W 23:13:19 10° N
STARLINK-1057 3.7 23:07:36 10° SW 23:11:40 80° SE 23:15:50 10° NE
Cosmos 1821 Rocket 4.1 23:06:51 10° S 23:13:13 82° W 23:19:32 10° N
FALCON 9 DEB 3.0 23:12:03 10° NW 23:15:30 78° SW 23:18:58 10° SE
Cosmos 2112 Rocket 4.2 23:10:34 10° S 23:15:47 77° ESE 23:21:06 10° NNE
CZ-2C R/B 2.9 23:11:17 10° NNE 23:16:29 71° ESE 23:21:36 10° S
NOSS 0 Rocket 4.2 23:10:30 10° SSW 23:16:36 73° ESE 23:22:44 10° NNE
STARLINK-1034 3.6 23:12:31 10° SW 23:16:39 88° SE 23:20:49 10° NE
Cosmos 2333 Rocket 2.7 23:13:57 10° SW 23:19:19 45° WNW 23:24:46 10° N
STARLINK-1068 3.6 23:17:29 10° SW 23:21:37 84° NW 23:25:47 10° NE
Cosmos 1933 4.0 23:18:12 10° NNW 23:21:53 35° W 23:25:31 10° SSW
Cosmos 1727 Rocket 4.3 23:17:01 10° NNW 23:22:51 46° W 23:28:40 10° SSW
Cosmos 1328 Rocket 4.3 23:19:02 10° NNW 23:22:58 33° W 23:26:51 10° SSW
Cosmos 2219 Rocket 2.7 23:18:43 10° SW 23:24:00 43° WNW 23:29:20 10° N
ALOS 4.5 23:22:31 10° NE 23:26:26 26° E 23:30:20 10° SSE
